Flag Weather past 2 weeks in Fresnillo, Zacatecas, Mexico

Now
32 °F

Clear.


Feels Like: 27 °F
Forecast: 30 / 60 °F
Wind: 5 mph from Northwest

Location: Zacatecas Airport

Current Time: Nov 28, 2014 at 3:06:20 AM

Latest Report: Nov 28, 2014 at 1:57 AM


Visibility: 10 mi

Pressure: 30.42 "Hg

Humidity: 40%

Dew point: 10 °F

Location of FresnilloLocation

Historic Weather in Fresnillo — Graph

°F

Fresnillo temperature yesterday

Maximum temperature yesterday: 63 °F (at 12:53 PM)
Minimum temperature yesterday: 28 °F (at 3:50 AM)
Average temperature yesterday: 48 °F

Past Weeks' High & Low Weather Summary

 TemperatureHumidityPressure
High73 °F (Nov 15, 1:48 PM)93% (Nov 17, 2:45 AM)30.48 "Hg (Nov 17, 2:45 AM)
Low19 °F (Nov 26, 4:51 AM)11% (Nov 26, 2:46 PM)30.09 "Hg (Nov 23, 4:48 PM)
Average53 °F44%30.28 "Hg
* Reported Nov 13 1:42 AM — Nov 28 1:57 AM, Fresnillo, Weather by CustomWeather, © 2014

Note: Actual official high and low records may vary slightly from our data, if they occured in-between our weather recording intervals... More about our weather records

Advertising

Fresnillo weather history for previous 24 hours

 ConditionsComfort  
Time TempWeatherWind HumidityBarometerVisibility
1:57 AM
Nov 28
32 °FClear.5 mph40%30.42 "Hg10 mi
1:06 AM32 °FClear.5 mph44%30.42 "Hg10 mi
12:03 AM39 °FClear.5 mph36%30.44 "Hg10 mi
11:09 PM
Nov 27
45 °FClear.10 mph29%30.45 "Hg10 mi
10:04 PM45 °FPassing clouds.13 mph27%30.44 "Hg10 mi
8:45 PM46 °FPassing clouds.5 mph25%30.44 "Hg10 mi
6:49 PM48 °FPassing clouds.8 mph14%30.41 "Hg10 mi
6:00 PM55 °FPartly sunny.12 mph12%30.39 "Hg10 mi
5:15 PM61 °FPartly sunny.N/A11%30.39 "Hg10 mi
4:07 PM63 °FPartly sunny.12 mph12%30.37 "Hg10 mi
1:48 PM63 °FScattered clouds.13 mph12%30.39 "Hg10 mi
12:53 PM63 °FScattered clouds.18 mph12%30.41 "Hg10 mi
11:05 AM57 °FScattered clouds.18 mph13%30.48 "Hg10 mi
8:16 AM34 °FSunny.No wind48%30.47 "Hg10 mi
4:51 AM28 °FClear.No wind47%30.42 "Hg10 mi
3:50 AM28 °FClear.No wind47%30.42 "Hg10 mi
Weather by CustomWeather, © 2014

See weather overviewHow to use our weather pages